Shepherd Bay, Nunavut

4:01 PM CDT on October 18, 2017 (GMT -0500)
Shepherd Bay

Weather History for CYUS - March, 2013

Change the Weather History Date:

Saturday, March 16, 2013

  Actual Average Record
Temperature  
Mean Temperature -10 °F -  
Max Temperature 7 °F - - ()
Min Temperature -27 °F -26 °F - ()
Degree Days  
Heating Degree Days 75    
Moisture  
Dew Point -    
Average Humidity    
Maximum Humidity    
Minimum Humidity    
Precipitation  
Precipitation 0.00 in 0.01 in - ()
Sea Level Pressure  
Sea Level Pressure 29.52 in    
Wind  
Wind Speed 15 mph ()    
Max Wind Speed 23 mph    
Max Gust Speed 26 mph    
Visibility 2.9 miles    
Events Snow    
T = Trace of Precipitation, MM = Missing Value Source: Averaged Metar Reports

Daily Weather History Graph

Daily Weather History Graph

Search for Another Location

Airport or City:

Trip Planner

Search our weather history database for the weather conditions in past years. The results will help you decide how hot, cold, wet, or windy it might be!

Date:

Astronomy

Mar. 16, 2013 Rise Set
Actual Time 7:29 AM CDT 7:17 PM CDT
Civil Twilight 6:31 AM CDT 8:15 PM CDT
Nautical Twilight 5:21 AM CDT 9:26 PM CDT
Astronomical Twilight 3:56 AM CDT 10:53 PM CDT
Moon 7:09 AM CDT (3/16) 2:13 AM CDT (3/16)
Length of Visible Light 13h 43m
Length of Day
11h 48m
Waxing Crescent, 23% of the Moon is Illuminated
Mar 16
Waxing Crescent
Mar 19
First Quarter
Mar 27
Full
Apr 2
Last Quarter
Apr 10
New

Hourly Weather History & Observations

Time (CDT) Temp. Windchill Dew Point Humidity Pressure Visibility Wind Dir Wind Speed Gust Speed Precip Events Conditions
12:00 AM -27.4 °F -51.4 °F - N/A% 29.85 in 9.0 mi NNW 11.5 mph - N/A   Unknown
1:00 AM -26 °F - - % 29.81 in 9 mi NW 11.5 mph - -  
1:00 AM -25.6 °F -48.0 °F - N/A% 29.81 in 9.0 mi NW 10.4 mph - N/A   Unknown
1:10 AM -25.6 °F -49.2 °F - N/A% 29.77 in 9.0 mi NW 11.5 mph - N/A   Unknown
1:40 AM -23.8 °F -48.9 °F - N/A% 29.76 in 9.0 mi NW 13.8 mph - N/A   Unknown
2:00 AM -23.8 °F -45.8 °F - N/A% 29.78 in 8.0 mi NW 10.4 mph - N/A   Unknown
2:01 AM -23.8 °F -45.8 °F - N/A% 29.74 in 8.0 mi NW 10.4 mph - N/A   Unknown
2:20 AM -22.0 °F -44.7 °F - N/A% 29.73 in 9.0 mi NNW 11.5 mph - N/A   Unknown
3:00 AM -20.2 °F -41.3 °F - N/A% 29.75 in 9.0 mi NW 10.4 mph - N/A   Unknown
3:11 AM -20.2 °F -40.1 °F - N/A% 29.71 in 9.0 mi NW 9.2 mph - N/A   Unknown
3:19 AM -20.2 °F -41.3 °F - N/A% 29.71 in 9.0 mi NW 10.4 mph - N/A   Unknown
3:22 AM -20.2 °F -41.3 °F - N/A% 29.71 in 9.0 mi NW 10.4 mph - N/A   Unknown
3:35 AM -18.4 °F -42.1 °F - N/A% 29.69 in 9.0 mi NW 13.8 mph - N/A   Unknown
4:00 AM -17 °F - - % 29.71 in 9 mi NW 13.8 mph - -  
4:00 AM -16.6 °F -40.6 °F - N/A% 29.71 in 9.0 mi NW 15.0 mph - N/A   Unknown
4:40 AM -16.6 °F -41.4 °F - N/A% 29.65 in 4.0 mi NW 16.1 mph - N/A   Unknown
5:00 AM -14.8 °F -40.5 °F - N/A% 29.67 in 5.0 mi NW 18.4 mph - N/A   Unknown
5:10 AM -14.8 °F -41.2 °F - N/A% 29.63 in 2.8 mi NW 19.6 mph - N/A   Unknown
5:14 AM -14.8 °F -40.5 °F - N/A% 29.63 in 2.5 mi NW 18.4 mph - N/A   Unknown
5:54 AM -14.8 °F -41.2 °F - N/A% 29.60 in 1.4 mi NW 19.6 mph - N/A   Unknown
5:56 AM -14.8 °F -41.8 °F - N/A% 29.60 in 1.1 mi NW 20.7 mph - N/A Snow Light Snow
5:58 AM -14.8 °F -41.8 °F - N/A% 29.60 in 1.0 mi NW 20.7 mph - N/A Snow Light Snow
6:00 AM -13.0 °F -38.8 °F - N/A% 29.63 in 0.6 mi NW 19.6 mph - N/A Snow Light Snow
6:17 AM -13.0 °F -37.5 °F - N/A% 29.60 in 0.6 mi NW 17.3 mph - N/A Snow Light Snow
6:28 AM -13.0 °F -38.2 °F - N/A% 29.59 in 0.8 mi NW 18.4 mph - N/A Snow Light Snow
6:31 AM -13.0 °F -38.2 °F - N/A% 29.59 in 0.8 mi NW 18.4 mph - N/A Snow Light Snow
6:43 AM -13.0 °F -38.8 °F - N/A% 29.59 in 1.0 mi NW 19.6 mph - N/A   Unknown
6:44 AM -13.0 °F -38.8 °F - N/A% 29.58 in 1.1 mi NW 19.6 mph - N/A   Unknown
6:45 AM -13.0 °F -38.2 °F - N/A% 29.58 in 1.1 mi NW 18.4 mph - N/A Snow Light Snow
6:46 AM -13.0 °F -38.2 °F - N/A% 29.58 in 1.1 mi NW 18.4 mph - N/A   Unknown
7:00 AM -13 °F - - % 29.60 in 1 mi NW 17.3 mph - -  
7:00 AM -13.0 °F -38.2 °F - N/A% 29.60 in 1.4 mi NW 18.4 mph - N/A   Unknown
7:04 AM -13.0 °F -38.8 °F - N/A% 29.57 in 1.4 mi NW 19.6 mph - N/A   Unknown
7:10 AM -13.0 °F -36.8 °F - N/A% 29.57 in 1.5 mi NW 16.1 mph - N/A   Unknown
7:14 AM -13.0 °F -36.0 °F - N/A% 29.57 in 1.5 mi WNW 15.0 mph - N/A   Unknown
7:18 AM -13.0 °F -36.0 °F - N/A% 29.57 in 1.5 mi WNW 15.0 mph - N/A   Unknown
7:27 AM -13.0 °F -36.0 °F - N/A% 29.57 in 2.0 mi WNW 15.0 mph - N/A   Unknown
7:59 AM -11.2 °F -33.7 °F - N/A% 29.55 in 3.5 mi NW 15.0 mph - N/A Snow Light Snow
8:00 AM -11.2 °F -33.7 °F - N/A% 29.58 in 2.6 mi NW 15.0 mph - N/A Snow Light Snow
8:06 AM -11.2 °F -33.7 °F - N/A% 29.55 in 1.4 mi NW 15.0 mph - N/A Snow Light Snow
8:14 AM -11.2 °F -35.8 °F - N/A% 29.55 in 1.2 mi NW 18.4 mph - N/A   Unknown
8:17 AM -11.2 °F -35.8 °F - N/A% 29.55 in 1.2 mi NW 18.4 mph - N/A Snow Light Snow
8:33 AM -11.2 °F -37.0 °F - N/A% 29.54 in 1.4 mi NW 20.7 mph - N/A Snow Light Snow
8:35 AM -11.2 °F -36.4 °F - N/A% 29.53 in 1.4 mi NW 19.6 mph - N/A   Unknown
8:38 AM -11.2 °F -36.4 °F - N/A% 29.53 in 1.4 mi NW 19.6 mph - N/A   Unknown
8:43 AM -11.2 °F -36.4 °F - N/A% 29.53 in 1.5 mi NW 19.6 mph - N/A   Unknown
8:51 AM -11.2 °F -36.4 °F - N/A% 29.53 in 1.4 mi NW 19.6 mph - N/A   Unknown
9:00 AM -11.2 °F -37.0 °F - N/A% 29.55 in 1.1 mi NW 20.7 mph - N/A   Unknown
9:03 AM -11.2 °F -36.4 °F - N/A% 29.52 in 1.1 mi NW 19.6 mph - N/A   Unknown
9:15 AM -9.4 °F -33.5 °F - N/A% 29.52 in 1.1 mi NW 18.4 mph - N/A   Unknown
9:18 AM -9.4 °F -32.8 °F - N/A% 29.52 in 1.2 mi NW 17.3 mph - N/A   Unknown
9:20 AM -9.4 °F -34.1 °F - N/A% 29.52 in 1.2 mi NW 19.6 mph - N/A   Unknown
9:22 AM -9.4 °F -34.1 °F - N/A% 29.51 in 1.2 mi NW 19.6 mph - N/A   Unknown
9:30 AM -9.4 °F -34.1 °F - N/A% 29.51 in 1.1 mi NW 19.6 mph - N/A Snow Light Snow
9:38 AM -9.4 °F -34.1 °F - N/A% 29.51 in 1.0 mi NW 19.6 mph - N/A Snow Light Snow
9:46 AM -7.6 °F -31.1 °F - N/A% 29.50 in 1.0 mi NW 18.4 mph - N/A   Unknown
9:47 AM -7.6 °F -31.7 °F - N/A% 29.50 in 1.0 mi NW 19.6 mph - N/A   Unknown
9:53 AM -7.6 °F -31.7 °F - N/A% 29.50 in 1.0 mi NW 19.6 mph - N/A   Unknown
10:00 AM -8 °F - - % 29.52 in 1 mi NW 19.6 mph - -  
10:00 AM -7.6 °F -32.3 °F - N/A% 29.52 in 1.0 mi NW 20.7 mph - N/A   Unknown
10:07 AM -7.6 °F -33.4 °F - N/A% 29.49 in 0.6 mi NNW 23.0 mph - N/A   Unknown
10:20 AM -7.6 °F -32.3 °F - N/A% 29.48 in 1.0 mi NW 20.7 mph - N/A   Unknown
10:36 AM -5.8 °F -29.9 °F - N/A% 29.47 in 1.2 mi NW 20.7 mph - N/A   Unknown
10:45 AM -5.8 °F -31.0 °F - N/A% 29.46 in 1.0 mi NW 23.0 mph - N/A   Unknown
10:48 AM -5.8 °F -31.0 °F - N/A% 29.46 in 0.6 mi NW 23.0 mph - N/A   Unknown
11:00 AM -4.0 °F -27.0 °F - N/A% 29.49 in 0.6 mi NNW 19.6 mph - N/A   Unknown
11:16 AM -4.0 °F -25.2 °F - N/A% 29.46 in 1.0 mi NNW 16.1 mph 21.9 mph N/A   Unknown
11:17 AM -4.0 °F -25.2 °F - N/A% 29.46 in 1.0 mi NW 16.1 mph 21.9 mph N/A   Unknown
11:24 AM -2.2 °F -22.9 °F - N/A% 29.46 in 1.5 mi NNW 16.1 mph - N/A   Unknown
11:34 AM -0.4 °F -22.8 °F - N/A% 29.46 in 1.4 mi NNW 20.7 mph - N/A   Unknown
11:39 AM -0.4 °F -21.7 °F - N/A% 29.45 in 1.0 mi North 18.4 mph - N/A   Unknown
11:43 AM 1.4 °F -20.5 °F - N/A% 29.45 in 0.6 mi North 20.7 mph - N/A   Unknown
11:46 AM 1.4 °F -19.9 °F - N/A% 29.45 in 0.6 mi NNW 19.6 mph - N/A   Unknown
12:00 PM 1.4 °F -19.9 °F - N/A% 29.48 in 0.6 mi NNW 19.6 mph - N/A   Unknown
12:07 PM 1.4 °F -19.9 °F - N/A% 29.45 in 0.5 mi NNW 19.6 mph - N/A Snow Light Snow
12:25 PM 1.4 °F -19.9 °F - N/A% 29.44 in 0.6 mi NNW 19.6 mph - N/A   Unknown
12:33 PM 3.2 °F -17.6 °F - N/A% 29.44 in 0.6 mi NNW 19.6 mph - N/A   Unknown
12:59 PM 3.2 °F -17.6 °F - N/A% 29.44 in 0.6 mi NNW 19.6 mph - N/A   Unknown
1:00 PM 2 °F - - % 29.47 in 1 mi NNW 19.6 mph - -  
1:00 PM 3.2 °F -17.6 °F - N/A% 29.47 in 0.8 mi NNW 19.6 mph - N/A   Unknown
1:05 PM 3.2 °F -17.1 °F - N/A% 29.44 in 0.8 mi NNW 18.4 mph - N/A Snow Light Snow
1:22 PM 3.2 °F -16.5 °F - N/A% 29.44 in 1.0 mi NNW 17.3 mph - N/A Snow Light Snow
1:23 PM 3.2 °F -16.5 °F - N/A% 29.44 in 1.0 mi NNW 17.3 mph - N/A   Unknown
1:24 PM 3.2 °F -16.5 °F - N/A% 29.44 in 1.1 mi NNW 17.3 mph - N/A   Unknown
1:25 PM 3.2 °F -15.9 °F - N/A% 29.44 in 1.0 mi NNW 16.1 mph - N/A Snow Light Snow
1:26 PM 3.2 °F -15.9 °F - N/A% 29.44 in 1.0 mi NNW 16.1 mph - N/A Snow Light Snow
1:34 PM 3.2 °F -15.3 °F - N/A% 29.44 in 1.0 mi NNW 15.0 mph - N/A Snow Light Snow
1:59 PM 3.2 °F -14.6 °F - N/A% 29.44 in 1.0 mi NW 13.8 mph - N/A Snow Light Snow
2:00 PM 3.2 °F -14.6 °F - N/A% 29.46 in 1.0 mi NW 13.8 mph - N/A Snow Light Snow
2:14 PM 5.0 °F -10.0 °F - N/A% 29.44 in 1.4 mi NW 10.4 mph - N/A   Unknown
2:16 PM 5.0 °F -10.0 °F - N/A% 29.44 in 2.2 mi NW 10.4 mph - N/A   Unknown
2:26 PM 5.0 °F -12.3 °F - N/A% 29.43 in 1.4 mi North 13.8 mph - N/A   Unknown
2:33 PM 5.0 °F -15.7 °F - N/A% 29.42 in 1.0 mi North 20.7 mph - N/A   Unknown
2:36 PM 5.0 °F -15.7 °F - N/A% 29.42 in 0.6 mi North 20.7 mph - N/A   Unknown
2:43 PM 5.0 °F -15.2 °F - N/A% 29.42 in 0.6 mi North 19.6 mph 26.5 mph N/A Snow Light Snow
2:51 PM 5.0 °F -15.2 °F - N/A% 29.43 in 1.0 mi North 19.6 mph - N/A Snow Light Snow
3:00 PM 5.0 °F -15.2 °F - N/A% 29.45 in 1.2 mi North 19.6 mph - N/A Snow Light Snow
3:08 PM 5.0 °F -14.7 °F - N/A% 29.43 in 1.2 mi North 18.4 mph - N/A Snow Light Snow
3:11 PM 5.0 °F -15.2 °F - N/A% 29.43 in 1.2 mi North 19.6 mph - N/A Snow Light Snow
3:14 PM 5.0 °F -15.2 °F - N/A% 29.43 in 1.2 mi North 19.6 mph - N/A Snow Light Snow
3:26 PM 5.0 °F -13.6 °F - N/A% 29.44 in 1.4 mi North 16.1 mph - N/A   Unknown
3:27 PM 5.0 °F -13.6 °F - N/A% 29.44 in 2.1 mi North 16.1 mph - N/A   Unknown
3:38 PM 5.0 °F -14.2 °F - N/A% 29.43 in 2.2 mi North 17.3 mph - N/A   Unknown
4:00 PM 6 °F - - % 29.45 in 2 mi North 19.6 mph - -  
4:00 PM 6.8 °F -12.9 °F - N/A% 29.45 in 2.2 mi North 19.6 mph - N/A   Unknown
4:03 PM 6.8 °F -12.4 °F - N/A% 29.43 in 2.0 mi North 18.4 mph - N/A Snow Light Snow
4:12 PM 6.8 °F -12.4 °F - N/A% 29.43 in 1.4 mi North 18.4 mph - N/A Snow Light Snow
4:16 PM 6.8 °F -12.9 °F - N/A% 29.43 in 1.4 mi North 19.6 mph - N/A Snow Light Snow
4:28 PM 5.0 °F -14.7 °F - N/A% 29.43 in 1.5 mi North 18.4 mph - N/A Snow Light Snow
4:36 PM 5.0 °F -15.2 °F - N/A% 29.43 in 1.4 mi North 19.6 mph - N/A Snow Light Snow
4:53 PM 5.0 °F -15.2 °F - N/A% 29.43 in 1.1 mi North 19.6 mph - N/A Snow Light Snow
5:00 PM 5.0 °F -14.7 °F - N/A% 29.45 in 1.2 mi North 18.4 mph - N/A Snow Light Snow
5:16 PM 5.0 °F -13.6 °F - N/A% 29.43 in 1.4 mi North 16.1 mph - N/A Snow Light Snow
5:17 PM 5.0 °F -13.6 °F - N/A% 29.43 in 3.0 mi North 16.1 mph - N/A Snow Light Snow
5:19 PM 5.0 °F -13.6 °F - N/A% 29.43 in 3.0 mi North 16.1 mph - N/A   Unknown
5:22 PM 5.0 °F -13.6 °F - N/A% 29.43 in 3.0 mi North 16.1 mph - N/A   Unknown
5:27 PM 5.0 °F -14.2 °F - N/A% 29.43 in 3.5 mi North 17.3 mph - N/A   Unknown
5:41 PM 5.0 °F -13.0 °F - N/A% 29.43 in 3.0 mi North 15.0 mph - N/A   Unknown
5:55 PM 6.8 °F -12.9 °F - N/A% 29.43 in 2.4 mi NE 19.6 mph - N/A Snow Light Snow
6:00 PM 6.8 °F -12.9 °F - N/A% 29.46 in 2.1 mi NE 19.6 mph - N/A Snow Light Snow
6:19 PM 6.8 °F -10.7 °F - N/A% 29.43 in 2.4 mi North 15.0 mph - N/A Snow Light Snow
6:40 PM 6.8 °F -11.3 °F - N/A% 29.43 in 1.5 mi North 16.1 mph - N/A Snow Light Snow
6:52 PM 6.8 °F -9.3 °F - N/A% 29.43 in 2.1 mi North 12.7 mph - N/A   Unknown
6:59 PM 6.8 °F -10.0 °F - N/A% 29.43 in 3.0 mi North 13.8 mph - N/A   Unknown
7:00 PM 7 °F - - % 29.46 in 3 mi North 13.8 mph - -  
7:00 PM 6.8 °F -10.0 °F - N/A% 29.46 in 3.5 mi North 13.8 mph - N/A   Unknown
7:07 PM 6.8 °F -12.4 °F - N/A% 29.44 in 6.0 mi NNE 18.4 mph - N/A   Unknown
7:31 PM 6.8 °F -11.3 °F - N/A% 29.44 in 9.0 mi NNE 16.1 mph - N/A   Unknown
7:51 PM 6.8 °F -11.3 °F - N/A% 29.44 in 9.0 mi NNE 16.1 mph - N/A   Unknown
8:00 PM 6.8 °F -10.0 °F - N/A% 29.47 in 9.0 mi NNE 13.8 mph - N/A   Unknown
8:07 PM 6.8 °F -10.0 °F - N/A% 29.44 in 9.0 mi NNE 13.8 mph - N/A   Unknown
9:00 PM 6.8 °F -8.6 °F - N/A% 29.48 in 9.0 mi North 11.5 mph - N/A   Unknown
9:13 PM 6.8 °F -10.0 °F - N/A% 29.46 in 9.0 mi NNE 13.8 mph - N/A   Unknown
9:31 PM 6.8 °F -9.3 °F - N/A% 29.47 in 9.0 mi NE 12.7 mph - N/A   Unknown
10:00 PM 7 °F - - % 29.49 in 9 mi ENE 12.7 mph - -  
10:00 PM 6.8 °F -9.3 °F - N/A% 29.49 in 9.0 mi ENE 12.7 mph - N/A   Unknown
11:00 PM 5.0 °F -12.3 °F - N/A% 29.49 in 9.0 mi East 13.8 mph - N/A   Unknown
11:15 PM 3.2 °F -15.9 °F - N/A% 29.47 in 9.0 mi East 16.1 mph - N/A   Unknown